Santa Fe, NM

6:41 AM MDT on March 28, 2017 (GMT -0600)
Santa Fe Municipal

Weather History for KSAF - August, 2013

Change the Weather History Date:

Friday, August 9, 2013

  Actual Average Record
Temperature  
Mean Temperature 68 °F -  
Max Temperature 84 °F 93 °F 93 °F (1980)
Min Temperature 54 °F 58 °F 52 °F (1999)
Cooling Degree Days 3    
Growing Degree Days 18 (Base 50)    
Moisture  
Dew Point 45 °F    
Average Humidity 48    
Maximum Humidity 80    
Minimum Humidity 17    
Precipitation  
Precipitation 0.01 in - - ()
Sea Level Pressure  
Sea Level Pressure 30.02 in    
Wind  
Wind Speed 9 mph (NE)    
Max Wind Speed 20 mph    
Max Gust Speed 32 mph    
Visibility 10 miles    
Events Rain    
Averages and records for this station are not official NWS values.
T = Trace of Precipitation, MM = Missing Value Source: NWS Daily Summary

Daily Weather History Graph

Daily Weather History Graph

Search for Another Location

Airport or City:

Trip Planner

Search our weather history database for the weather conditions in past years. The results will help you decide how hot, cold, wet, or windy it might be!

Date:

Astronomy

Aug. 09, 2013 Rise Set
Actual Time 6:18 AM MDT 8:00 PM MDT
Civil Twilight 5:51 AM MDT 8:27 PM MDT
Nautical Twilight 5:18 AM MDT 9:00 PM MDT
Astronomical Twilight 4:43 AM MDT 9:35 PM MDT
Moon 8:59 AM MDT (8/9) 9:20 PM MDT (8/9)
Length of Visible Light 14h 36m
Length of Day
13h 41m
Waxing Crescent, 8% of the Moon is Illuminated
Aug 9
Waxing Crescent
Aug 14
First Quarter
Aug 20
Full
Aug 28
Last Quarter
Sep 5
New

Hourly Weather History & Observations

Time (MDT) Temp. Dew Point Humidity Pressure Visibility Wind Dir Wind Speed Gust Speed Precip Events Conditions
12:53 AM 60.1 °F 46.9 °F 62% 29.98 in 10.0 mi North 12.7 mph - N/A   Clear
1:53 AM 59.0 °F 46.9 °F 64% 29.97 in 10.0 mi NE 9.2 mph - N/A   Clear
2:53 AM 57.0 °F 48.0 °F 72% 29.97 in 10.0 mi NE 9.2 mph - N/A   Clear
3:53 AM 55.9 °F 48.0 °F 75% 29.97 in 10.0 mi NNE 8.1 mph - N/A   Clear
4:53 AM 54.0 °F 46.9 °F 77% 29.98 in 10.0 mi North 3.5 mph - N/A   Clear
5:53 AM 54.0 °F 46.9 °F 77% 30.01 in 10.0 mi NNE 8.1 mph - N/A   Clear
6:53 AM 54.0 °F 48.0 °F 80% 30.02 in 10.0 mi North 8.1 mph - N/A   Clear
7:53 AM 59.0 °F 48.9 °F 69% 30.04 in 10.0 mi North 10.4 mph - N/A   Clear
8:53 AM 63.0 °F 48.0 °F 58% 30.05 in 10.0 mi North 5.8 mph - N/A   Clear
9:53 AM 66.0 °F 46.9 °F 50% 30.04 in 10.0 mi Calm Calm - N/A   Clear
10:53 AM 71.1 °F 46.0 °F 41% 30.04 in 10.0 mi ESE 5.8 mph - N/A   Clear
11:53 AM 73.0 °F 46.0 °F 38% 30.03 in 10.0 mi Variable 4.6 mph - N/A   Clear
12:53 PM 75.9 °F 44.1 °F 32% 30.01 in 10.0 mi SSW 5.8 mph - N/A   Clear
1:53 PM 79.0 °F 42.1 °F 27% 29.97 in 10.0 mi Variable 3.5 mph - N/A   Clear
2:53 PM 82.0 °F 33.1 °F 17% 29.96 in 10.0 mi Variable 3.5 mph - N/A   Clear
3:30 PM 78.8 °F 39.2 °F 24% 30.26 in 10.0 mi North 15.0 mph 23.0 mph N/A   Overcast
3:53 PM 78.1 °F 39.0 °F 25% 29.99 in 10.0 mi NNE 10.4 mph - 0.00 in Rain Light Rain
4:53 PM 79.0 °F 41.0 °F 26% 29.98 in 10.0 mi Variable 4.6 mph - 0.00 in   Clear
5:53 PM 79.0 °F 37.0 °F 22% 29.96 in 10.0 mi Calm Calm - N/A   Clear
6:53 PM 80.1 °F 37.0 °F 21% 29.97 in 10.0 mi Calm Calm - N/A   Clear
7:53 PM 72.0 °F 44.1 °F 37% 30.00 in 10.0 mi SE 19.6 mph 32.2 mph 0.01 in   Clear
8:53 PM 69.1 °F 46.0 °F 44% 30.02 in 10.0 mi East 16.1 mph - N/A   Clear
9:53 PM 68.0 °F 50.0 °F 52% 30.05 in 10.0 mi SE 16.1 mph - 0.00 in   Clear
10:53 PM 68.0 °F 48.9 °F 50% 30.05 in 10.0 mi SE 13.8 mph 24.2 mph N/A   Partly Cloudy
11:53 PM 66.9 °F 50.0 °F 54% 30.06 in 10.0 mi ESE 17.3 mph - 0.00 in   Clear